PKNJT WAAA-WAFW

Flight info

Callsign PKNJT
Flight time N/A
Altitude 37000
Route MKS DIOLA LWK
Aircraft LJ35/M-V/N

Departure

Time 2026-05-04 07:33
Airport Sultan Hasanuddin International Airport (WAAA)

Arrival

Time N/A
Airport Syukuran Aminuddin Amir Airport (WAFW)
Time Latitude Longitude Altitude Speed Heading
2026-05-04 07:23 -5.07947 119.54845 35 ft 0 kts 120°
2026-05-04 07:28 -5.07949 119.54850 35 ft 2 kts 120°
2026-05-04 07:29 -5.07973 119.54865 35 ft 6 kts 219°
2026-05-04 07:29 -5.07952 119.54856 35 ft 0 kts 261°
2026-05-04 07:29 -5.07945 119.54841 35 ft 6 kts 300°
2026-05-04 07:29 -5.07916 119.54778 35 ft 11 kts 252°
2026-05-04 07:30 -5.07992 119.54748 35 ft 14 kts 166°
2026-05-04 07:30 -5.08055 119.54841 35 ft 19 kts 91°
2026-05-04 07:30 -5.07950 119.54937 35 ft 25 kts 30°
2026-05-04 07:30 -5.07773 119.55039 35 ft 33 kts 30°
2026-05-04 07:31 -5.07554 119.55164 35 ft 38 kts 29°
2026-05-04 07:31 -5.07319 119.55299 35 ft 40 kts 28°
2026-05-04 07:33 -5.08649 119.54727 653 ft 203 kts 214°
2026-05-04 07:33 -5.09902 119.53861 1605 ft 233 kts 219°
2026-05-04 07:33 -5.11294 119.52811 2605 ft 272 kts 213°
2026-05-04 07:33 -5.12831 119.51519 3631 ft 300 kts 233°
2026-05-04 07:34 -5.13465 119.49617 5747 ft 278 kts 270°
2026-05-04 07:34 -5.12778 119.47859 7491 ft 286 kts 313°
2026-05-04 07:34 -5.10993 119.46726 7993 ft 333 kts 343°
2026-05-04 07:34 -5.08592 119.46579 8743 ft 353 kts 11°
2026-05-04 07:35 -5.06485 119.47533 10956 ft 312 kts 41°
2026-05-04 07:35 -5.05276 119.49126 13527 ft 275 kts 66°
2026-05-04 07:35 -5.04668 119.51028 14426 ft 305 kts 78°
2026-05-04 07:35 -5.04295 119.53265 14817 ft 341 kts 84°
2026-05-04 07:36 -5.04440 119.55538 16538 ft 316 kts 107°
2026-05-04 07:36 -5.05458 119.57468 17996 ft 320 kts 127°
2026-05-04 07:38 -5.10783 119.69609 24751 ft 360 kts 41°
2026-05-04 07:38 -5.08610 119.70897 25539 ft 368 kts 21°
2026-05-04 07:38 -5.06167 119.71408 26332 ft 374 kts
2026-05-04 07:38 -5.03544 119.71585 27115 ft 381 kts
2026-05-04 07:39 -5.00875 119.71651 27882 ft 386 kts
2026-05-04 07:39 -4.98170 119.71677 28649 ft 392 kts
2026-05-04 07:39 -4.95430 119.71694 29395 ft 397 kts
2026-05-04 07:39 -4.92643 119.71702 30071 ft 403 kts
2026-05-04 07:40 -4.89830 119.71707 30703 ft 407 kts
2026-05-04 07:40 -4.86987 119.71715 31279 ft 411 kts
2026-05-04 07:40 -4.84110 119.71737 31873 ft 414 kts
2026-05-04 07:40 -4.81298 119.72336 32398 ft 416 kts 24°
2026-05-04 07:41 -4.78858 119.73886 32928 ft 418 kts 42°
2026-05-04 07:41 -4.76793 119.75953 33419 ft 422 kts 47°
2026-05-04 07:41 -4.74703 119.78047 33899 ft 426 kts 43°
2026-05-04 07:41 -4.72419 119.79960 34306 ft 431 kts 39°
2026-05-04 07:42 -4.70098 119.81878 34747 ft 433 kts 41°
2026-05-04 07:42 -4.67831 119.83889 35105 ft 437 kts 43°
2026-05-04 07:42 -4.65564 119.85932 35498 ft 440 kts 42°
2026-05-04 07:42 -4.63238 119.87945 35877 ft 443 kts 41°
2026-05-04 07:43 -4.60886 119.89946 36247 ft 445 kts 41°
2026-05-04 07:43 -4.58542 119.91985 36610 ft 447 kts 41°
2026-05-04 07:43 -4.56200 119.94051 36848 ft 453 kts 41°
2026-05-04 07:43 -4.53799 119.96144 36853 ft 462 kts 41°
2026-05-04 07:44 -4.48867 120.00412 36854 ft 473 kts 41°
2026-05-04 07:44 -4.43890 120.04756 36856 ft 470 kts 41°
2026-05-04 07:45 -4.39017 120.08985 36851 ft 458 kts 41°
2026-05-04 07:45 -4.34244 120.13140 36837 ft 452 kts 41°
2026-05-04 07:46 -4.29518 120.17246 36833 ft 448 kts 41°
2026-05-04 07:46 -4.24825 120.21328 36832 ft 445 kts 41°
2026-05-04 07:47 -4.20167 120.25375 36831 ft 442 kts 41°
2026-05-04 07:49 -4.01732 120.41398 36832 ft 437 kts 41°
2026-05-04 07:49 -3.97145 120.45382 36831 ft 436 kts 41°
2026-05-04 07:50 -3.92535 120.49387 36840 ft 435 kts 41°
2026-05-04 07:50 -3.87991 120.53335 36836 ft 435 kts 41°
2026-05-04 07:51 -3.83421 120.57304 36839 ft 435 kts 41°
2026-05-04 07:51 -3.78823 120.61298 36838 ft 434 kts 41°
2026-05-04 07:52 -3.74292 120.65232 36845 ft 434 kts 41°
2026-05-04 07:52 -3.69724 120.69199 36845 ft 434 kts 41°
2026-05-04 07:54 -3.52233 120.84385 36857 ft 433 kts 41°
2026-05-04 07:55 -3.47682 120.88335 36858 ft 433 kts 41°
2026-05-04 07:55 -3.43136 120.92280 36856 ft 433 kts 41°
2026-05-04 07:56 -3.38594 120.96222 36866 ft 432 kts 42°
2026-05-04 07:56 -3.34045 121.00169 36868 ft 433 kts 42°
2026-05-04 07:57 -3.29486 121.04126 36864 ft 434 kts 42°
2026-05-04 07:57 -3.24930 121.08081 36872 ft 434 kts 42°
2026-05-04 07:58 -3.20377 121.12031 36873 ft 433 kts 42°
2026-05-04 07:58 -3.15834 121.15971 36874 ft 432 kts 42°
2026-05-04 07:59 -3.11291 121.19911 36882 ft 432 kts 42°
2026-05-04 07:59 -3.06752 121.23846 36882 ft 432 kts 42°
2026-05-04 08:00 -3.02212 121.27783 36880 ft 432 kts 42°
2026-05-04 08:02 -2.84060 121.43517 36871 ft 432 kts 42°
2026-05-04 08:02 -2.79518 121.47452 36871 ft 432 kts 42°
2026-05-04 08:03 -2.74981 121.51384 36871 ft 432 kts 42°
2026-05-04 08:03 -2.70439 121.55319 36881 ft 432 kts 42°
2026-05-04 08:04 -2.65902 121.59250 36882 ft 431 kts 42°
2026-05-04 08:04 -2.61364 121.63181 36881 ft 431 kts 42°
2026-05-04 08:05 -2.56829 121.67111 36885 ft 432 kts 42°
2026-05-04 08:05 -2.52295 121.71038 36887 ft 431 kts 42°
2026-05-04 08:06 -2.47764 121.74963 36884 ft 431 kts 42°
2026-05-04 08:06 -2.43233 121.78886 36875 ft 430 kts 42°
2026-05-04 08:08 -2.25135 121.94552 36857 ft 430 kts 42°
2026-05-04 08:11 -2.04838 122.12119 36853 ft 428 kts 42°
2026-05-04 08:11 -1.98074 122.17971 36853 ft 429 kts 42°
2026-05-04 08:12 -1.93563 122.21873 36851 ft 429 kts 42°
2026-05-04 08:12 -1.89057 122.25770 36854 ft 428 kts 42°
2026-05-04 08:13 -1.84562 122.29657 36855 ft 427 kts 42°
2026-05-04 08:13 -1.80062 122.33547 36858 ft 427 kts 42°
2026-05-04 08:14 -1.75570 122.37429 36859 ft 427 kts 42°
2026-05-04 08:16 -1.57647 122.52918 36856 ft 426 kts 42°
2026-05-04 08:16 -1.53161 122.56794 36860 ft 426 kts 42°
2026-05-04 08:17 -1.48669 122.60674 36860 ft 427 kts 42°
2026-05-04 08:17 -1.44178 122.64554 36860 ft 427 kts 42°
2026-05-04 08:19 -1.26174 122.80105 36868 ft 429 kts 42°
2026-05-04 08:20 -1.21658 122.84005 36859 ft 430 kts 42°
2026-05-04 08:20 -1.17127 122.87918 36860 ft 431 kts 42°
2026-05-04 08:21 -1.12587 122.91839 36863 ft 432 kts 42°
2026-05-04 08:21 -1.08044 122.95762 36859 ft 432 kts 42°
2026-05-04 08:22 -1.03492 122.99693 36860 ft 433 kts 42°
2026-05-04 08:24 -0.85278 123.15394 36865 ft 431 kts 43°
2026-05-04 08:24 -0.80736 123.19301 36857 ft 431 kts 42°
2026-05-04 08:25 -0.76194 123.23207 36854 ft 431 kts 42°
2026-05-04 08:25 -0.71643 123.27122 36855 ft 432 kts 42°
2026-05-04 08:27 -0.53441 123.42769 36853 ft 431 kts 42°
2026-05-04 08:28 -0.48897 123.46675 36850 ft 431 kts 42°
2026-05-04 08:28 -0.44349 123.50583 36850 ft 431 kts 42°
2026-05-04 08:29 -0.39805 123.54487 36850 ft 431 kts 42°
2026-05-04 08:31 -0.21639 123.70089 36849 ft 431 kts 43°
2026-05-04 08:33 -0.03487 123.85672 36857 ft 430 kts 43°
2026-05-04 08:35 0.13861 124.00560 36860 ft 428 kts 42°
2026-05-04 08:35 0.18384 124.04440 36857 ft 428 kts 42°
2026-05-04 08:37 0.34198 124.18004 36869 ft 428 kts 42°
2026-05-04 08:38 0.38716 124.21879 36864 ft 428 kts 42°
2026-05-04 08:38 0.43238 124.25756 36862 ft 429 kts 42°
2026-05-04 08:40 0.61388 124.41318 36868 ft 430 kts 42°
2026-05-04 08:41 0.65936 124.45216 36878 ft 431 kts 42°
2026-05-04 08:41 0.70486 124.49115 36874 ft 431 kts 42°
2026-05-04 08:42 0.75042 124.53021 36864 ft 432 kts 42°
2026-05-04 08:42 0.79604 124.56931 36874 ft 432 kts 42°
2026-05-04 08:43 0.84170 124.60844 36872 ft 433 kts 42°
2026-05-04 08:43 0.88735 124.64757 36871 ft 433 kts 42°
2026-05-04 08:44 0.93306 124.68675 36873 ft 433 kts 42°
2026-05-04 08:46 1.11577 124.84331 36875 ft 434 kts 43°
2026-05-04 08:46 1.16160 124.88257 36890 ft 434 kts 43°
2026-05-04 08:47 1.20738 124.92178 36889 ft 434 kts 43°
2026-05-04 08:47 1.25346 124.96124 36897 ft 434 kts 43°
2026-05-04 08:48 1.29927 125.00048 36896 ft 433 kts 43°
2026-05-04 08:48 1.34472 125.03941 36895 ft 434 kts 43°
2026-05-04 08:49 1.39055 125.07865 36900 ft 434 kts 43°
2026-05-04 08:50 1.55102 125.21604 36894 ft 434 kts 43°
2026-05-04 08:51 1.59684 125.25528 36887 ft 433 kts 42°
2026-05-04 08:51 1.64255 125.29440 36876 ft 433 kts 42°
2026-05-04 08:52 1.68827 125.33354 36875 ft 433 kts 42°
2026-05-04 08:52 1.73401 125.37268 36869 ft 433 kts 42°
2026-05-04 08:54 1.91681 125.52911 36844 ft 432 kts 42°
2026-05-04 08:55 1.96236 125.56809 36843 ft 431 kts 42°
2026-05-04 08:55 2.00792 125.60707 36839 ft 431 kts 42°
2026-05-04 09:01 2.48529 126.01549 36852 ft 429 kts 42°
2026-05-04 09:01 2.53097 126.05457 36852 ft 429 kts 42°
2026-05-04 09:02 2.57611 126.09320 36846 ft 430 kts 42°
2026-05-04 09:02 2.62141 126.13196 36853 ft 429 kts 42°
2026-05-04 09:03 2.66680 126.17081 36847 ft 429 kts 42°
2026-05-04 09:03 2.71224 126.20969 36854 ft 429 kts 42°
2026-05-04 09:04 2.75754 126.24846 36852 ft 429 kts 42°
2026-05-04 09:04 2.80301 126.28737 36855 ft 429 kts 42°
2026-05-04 09:05 2.84846 126.32628 36849 ft 430 kts 42°
2026-05-04 09:05 2.89392 126.36520 36854 ft 430 kts 42°
2026-05-04 09:06 2.93943 126.40418 36850 ft 431 kts 42°
2026-05-04 09:08 3.12157 126.56015 36853 ft 431 kts 42°
2026-05-04 09:08 3.16711 126.59915 36853 ft 431 kts 42°
2026-05-04 09:09 3.21266 126.63815 36851 ft 431 kts 42°
2026-05-04 09:09 3.25822 126.67717 36852 ft 431 kts 42°
2026-05-04 09:10 3.30377 126.71618 36847 ft 431 kts 42°
2026-05-04 09:10 3.34937 126.75523 36855 ft 431 kts 42°
2026-05-04 09:11 3.39487 126.79420 36855 ft 431 kts 42°
2026-05-04 09:11 3.44035 126.83316 36858 ft 430 kts 42°
2026-05-04 09:12 3.48581 126.87209 36856 ft 430 kts 42°
2026-05-04 09:14 3.66767 127.02786 36859 ft 430 kts 41°
2026-05-04 09:14 3.71305 127.06674 36854 ft 430 kts 41°
2026-05-04 09:15 3.75849 127.10567 36856 ft 429 kts 41°
2026-05-04 09:15 3.79649 127.13823 36857 ft 429 kts 41°
2026-05-04 09:17 4.00077 127.31326 36854 ft 430 kts 42°
2026-05-04 09:18 4.04629 127.35226 36851 ft 431 kts 42°
2026-05-04 09:18 4.09182 127.39129 36853 ft 431 kts 41°
2026-05-04 09:19 4.13736 127.43033 36855 ft 431 kts 41°
2026-05-04 09:19 4.18294 127.46941 36851 ft 431 kts 41°
2026-05-04 09:20 4.22853 127.50848 36858 ft 431 kts 42°
2026-05-04 09:20 4.27416 127.54760 36858 ft 432 kts 42°
2026-05-04 09:21 4.31982 127.58674 36861 ft 432 kts 42°
2026-05-04 09:21 4.36546 127.62588 36852 ft 432 kts 42°